This is the latest recevied weather packets stored in our database for station/object KD7CTY. If no packets are shown the sender has not sent any weather packets the latest 10 day(s).
| Time | Temp. | Humidity | Pressure | Rain* | Wind** | Luminosity | Snow |
|---|---|---|---|---|---|---|---|
| 1777128261 | 7.22° C | 76% | 1013.2 hPa | 0 mm | - | 43 W/m² | - |
| 1777127959 | 6.67° C | 77% | 1013.1 hPa | 0 mm | - | 42 W/m² | - |
| 1777127656 | 6.11° C | 78% | 1013.3 hPa | 0 mm | - | 40 W/m² | - |
| 1777127353 | 6.11° C | 78% | 1013.1 hPa | 0 mm | - | 38 W/m² | - |
| 1777127049 | 6.11° C | 78% | 1013.1 hPa | 0 mm | - | 36 W/m² | - |
| 1777126744 | 5.56° C | 80% | 1012.9 hPa | 0 mm | - | 35 W/m² | - |
| 1777126441 | 5.56° C | 81% | 1013 hPa | 0 mm | - | 33 W/m² | - |
| 1777126136 | 5° C | 81% | 1013.1 hPa | 0 mm | - | 31 W/m² | - |
| 1777125833 | 5° C | 80% | 1012.9 hPa | 0 mm | - | 29 W/m² | - |
| 1777125529 | 5° C | 81% | 1012.9 hPa | 0 mm | - | 27 W/m² | - |
| 1777125224 | 5° C | 81% | 1013.1 hPa | 0 mm | - | 25 W/m² | - |
| 1777124920 | 5° C | 80% | 1012.9 hPa | 0 mm | - | 23 W/m² | - |
| 1777124617 | 5° C | 81% | 1013.1 hPa | 0 mm | - | 20 W/m² | - |
| 1777124312 | 5° C | 83% | 1012.9 hPa | 0 mm | - | 18 W/m² | - |
| 1777124010 | 5° C | 81% | 1012.9 hPa | 0 mm | - | 15 W/m² | - |
| 1777123705 | 5° C | 80% | 1013 hPa | 0 mm | - | 12 W/m² | - |
| 1777123402 | 5° C | 83% | 1013 hPa | 0 mm | - | 10 W/m² | - |
| 1777123098 | 4.44° C | 85% | 1012.9 hPa | 0 mm | - | 6 W/m² | - |
| 1777122795 | 4.44° C | 86% | 1013 hPa | 0 mm | - | 4 W/m² | - |
| 1777122490 | 3.89° C | 85% | 1013 hPa | 0 mm | - | 2 W/m² | - |
| 1777122187 | 4.44° C | 85% | 1012.9 hPa | 0 mm | - | 0 W/m² | - |
| 1777121883 | 5° C | 82% | 1012.9 hPa | 0 mm | - | 0 W/m² | - |
| 1777121579 | 5° C | 78% | 1012.6 hPa | 0 mm | - | 0 W/m² | - |
| 1777121276 | 5° C | 76% | 1012.8 hPa | 0 mm | - | 0 W/m² | - |
| 1777120973 | 5.56° C | 74% | 1013.1 hPa | 0 mm | - | 0 W/m² | - |
* Rain latest hour (hover to see other rain measurements)
** Current wind speed in m/s (hover to see current wind gust speed)